• In Czech Republic
  • List of Countries
  • For 7 days
  • Water Temperature
  • Satellite Maps
  • Weather Map
  • Weather Widgets
  • user-avatar
    Login

    Hourly Weather Kokpekty

    Today, 22 July, Sunday

    Time Temperature Precipitation Wind Pressure Humidity
    00:00 +22°C° 0.1 mm 4 mps 708 mmHg 58%
    01:00 +21°C° 0.1 mm 4 mps 708 mmHg 62%
    02:00 +20°C° 0.1 mm 3 mps 707 mmHg 66%
    03:00 +20°C° 0 mm 3 mps 707 mmHg 68%
    04:00 +20°C° 0 mm 2 mps 707 mmHg 69%
    05:00 +20°C° 0 mm 4 mps 707 mmHg 63%
    06:00 +20°C° 0.1 mm 4 mps 707 mmHg 68%
    07:00 +19°C° 0.1 mm 4 mps 707 mmHg 72%
    08:00 +19°C° 0.1 mm 5 mps 707 mmHg 76%
    09:00 +19°C° 0.5 mm 5 mps 707 mmHg 74%
    10:00 +20°C° 0.5 mm 6 mps 707 mmHg 72%
    11:00 +20°C° 0.5 mm 6 mps 707 mmHg 70%
    12:00 +20°C° 0.6 mm 6 mps 707 mmHg 70%
    13:00 +20°C° 0.6 mm 6 mps 707 mmHg 69%
    14:00 +20°C° 0.6 mm 6 mps 707 mmHg 69%
    15:00 +18°C° 0.7 mm 7 mps 707 mmHg 72%
    16:00 +18°C° 0.7 mm 7 mps 707 mmHg 75%
    17:00 +12°C° 0 mm 9 mps 706 mmHg 81%
    18:00 +12°C° 1.5 mm 9 mps 707 mmHg 83%
    19:00 +11°C° 1.5 mm 8 mps 707 mmHg 84%
    20:00 +11°C° 1.5 mm 7 mps 707 mmHg 86%
    21:00 +11°C° 1 mm 7 mps 707 mmHg 86%
    22:00 +10°C° 1 mm 7 mps 707 mmHg 85%
    23:00 +10°C° 1 mm 7 mps 707 mmHg 85%

    Tomorrow, 23 July, Monday

    Time Temperature Precipitation Wind Pressure Humidity
    00:00 +10°C° 0.1 mm 6 mps 707 mmHg 83%
    01:00 +9°C° 0.1 mm 6 mps 706 mmHg 81%
    02:00 +9°C° 0.1 mm 6 mps 706 mmHg 79%
    03:00 +9°C° 0 mm 6 mps 706 mmHg 81%
    04:00 +8°C° 0 mm 6 mps 707 mmHg 83%
    05:00 +7°C° 0 mm 5 mps 707 mmHg 85%
    06:00 +8°C° 0 mm 6 mps 707 mmHg 81%
    07:00 +9°C° 0 mm 6 mps 707 mmHg 78%
    08:00 +10°C° 0 mm 6 mps 707 mmHg 75%
    09:00 +10°C° 0 mm 6 mps 707 mmHg 71%
    10:00 +11°C° 0 mm 6 mps 707 mmHg 68%
    11:00 +11°C° 0 mm 6 mps 708 mmHg 64%
    12:00 +13°C° 0 mm 6 mps 708 mmHg 62%
    13:00 +13°C° 0 mm 6 mps 708 mmHg 61%
    14:00 +14°C° 0 mm 6 mps 707 mmHg 59%
    15:00 +13°C° 0.1 mm 6 mps 708 mmHg 59%
    16:00 +12°C° 0.1 mm 7 mps 708 mmHg 60%
    17:00 +12°C° 0.1 mm 7 mps 708 mmHg 60%
    18:00 +11°C° 0 mm 6 mps 708 mmHg 62%
    19:00 +11°C° 0 mm 6 mps 708 mmHg 64%
    20:00 +10°C° 0 mm 5 mps 708 mmHg 66%
    21:00 +9°C° 0 mm 5 mps 708 mmHg 69%
    22:00 +9°C° 0 mm 6 mps 708 mmHg 72%
    23:00 +8°C° 0 mm 6 mps 708 mmHg 75%

    Day after tomorrow, 24 July, Tuesday

    Time Temperature Precipitation Wind Pressure Humidity
    00:00 +8°C° 0 mm 5 mps 707 mmHg 77%
    01:00 +8°C° 0 mm 5 mps 707 mmHg 79%
    02:00 +8°C° 0 mm 5 mps 706 mmHg 81%
    03:00 +8°C° 0.2 mm 5 mps 706 mmHg 82%
    04:00 +8°C° 0.2 mm 5 mps 706 mmHg 83%
    05:00 +8°C° 0.2 mm 5 mps 706 mmHg 84%
    06:00 +8°C° 0.6 mm 5 mps 705 mmHg 85%
    07:00 +8°C° 0.6 mm 6 mps 705 mmHg 85%
    08:00 +8°C° 0.6 mm 6 mps 705 mmHg 86%
    09:00 +9°C° 0.4 mm 6 mps 705 mmHg 85%
    10:00 +9°C° 0.4 mm 7 mps 706 mmHg 84%
    11:00 +10°C° 0.4 mm 7 mps 706 mmHg 82%
    12:00 +11°C° 0.4 mm 7 mps 706 mmHg 81%
    13:00 +11°C° 0.4 mm 7 mps 707 mmHg 79%
    14:00 +13°C° 0.4 mm 6 mps 707 mmHg 78%
    15:00 +13°C° 0.1 mm 6 mps 707 mmHg 77%
    16:00 +13°C° 0.1 mm 6 mps 708 mmHg 77%
    17:00 +13°C° 0.1 mm 6 mps 708 mmHg 77%
    18:00 +13°C° 0.1 mm 6 mps 709 mmHg 80%
    19:00 +12°C° 0.1 mm 5 mps 709 mmHg 84%
    20:00 +12°C° 0.1 mm 4 mps 710 mmHg 87%
    21:00 +11°C° 0 mm 4 mps 710 mmHg 89%
    22:00 +11°C° 0 mm 4 mps 710 mmHg 90%
    23:00 +11°C° 0 mm 3 mps 711 mmHg 91%

    25 July, Wednesday

    Time Temperature Precipitation Wind Pressure Humidity
    00:00 +11°C° 0 mm 3 mps 711 mmHg 92%
    01:00 +11°C° 0 mm 3 mps 711 mmHg 92%
    02:00 +11°C° 0 mm 3 mps 712 mmHg 92%
    03:00 +11°C° 0 mm 3 mps 712 mmHg 92%
    04:00 +11°C° 0 mm 3 mps 712 mmHg 93%
    05:00 +11°C° 0 mm 3 mps 713 mmHg 93%
    06:00 +12°C° 0 mm 4 mps 713 mmHg 89%
    07:00 +13°C° 0 mm 4 mps 713 mmHg 85%
    08:00 +13°C° 0 mm 4 mps 714 mmHg 81%
    09:00 +15°C° 0 mm 4 mps 714 mmHg 76%
    10:00 +16°C° 0 mm 5 mps 714 mmHg 70%
    11:00 +19°C° 0 mm 5 mps 715 mmHg 65%
    12:00 +19°C° 0.1 mm 5 mps 715 mmHg 62%
    13:00 +20°C° 0.1 mm 5 mps 715 mmHg 60%
    14:00 +21°C° 0.1 mm 5 mps 715 mmHg 58%
    15:00 +21°C° 0.1 mm 5 mps 715 mmHg 57%
    16:00 +21°C° 0.1 mm 5 mps 716 mmHg 57%
    17:00 +21°C° 0.1 mm 5 mps 716 mmHg 56%
    18:00 +20°C° 0.1 mm 4 mps 716 mmHg 61%
    19:00 +19°C° 0.1 mm 3 mps 716 mmHg 66%
    20:00 +18°C° 0.1 mm 2 mps 716 mmHg 71%
    21:00 +17°C° 0 mm 2 mps 716 mmHg 74%
    22:00 +16°C° 0 mm 2 mps 717 mmHg 77%
    23:00 +15°C° 0 mm 2 mps 717 mmHg 80%

    26 July, Thursday

    Time Temperature Precipitation Wind Pressure Humidity
    00:00 +14°C° 0 mm 2 mps 717 mmHg 81%
    01:00 +14°C° 0 mm 2 mps 717 mmHg 81%
    02:00 +14°C° 0 mm 2 mps 717 mmHg 82%
    03:00 +13°C° 0 mm 2 mps 717 mmHg 83%
    04:00 +12°C° 0 mm 3 mps 717 mmHg 83%
    05:00 +12°C° 0 mm 3 mps 717 mmHg 84%
    06:00 +14°C° 0 mm 3 mps 718 mmHg 77%
    07:00 +17°C° 0 mm 4 mps 718 mmHg 69%
    08:00 +19°C° 0 mm 4 mps 718 mmHg 62%
    09:00 +20°C° 0 mm 4 mps 718 mmHg 55%
    10:00 +21°C° 0 mm 5 mps 718 mmHg 49%
    11:00 +22°C° 0 mm 5 mps 718 mmHg 43%
    12:00 +23°C° 0 mm 5 mps 718 mmHg 40%
    13:00 +23°C° 0 mm 5 mps 718 mmHg 38%
    14:00 +25°C° 0 mm 5 mps 718 mmHg 35%
    15:00 +25°C° 0 mm 5 mps 718 mmHg 35%
    16:00 +25°C° 0 mm 5 mps 718 mmHg 36%
    17:00 +25°C° 0 mm 5 mps 718 mmHg 36%
    18:00 +22°C° 0 mm 4 mps 717 mmHg 42%
    19:00 +21°C° 0 mm 3 mps 717 mmHg 49%
    20:00 +19°C° 0 mm 2 mps 717 mmHg 55%
    21:00 +19°C° 0 mm 2 mps 717 mmHg 58%
    22:00 +18°C° 0 mm 2 mps 717 mmHg 60%
    23:00 +18°C° 0 mm 2 mps 717 mmHg 63%

    27 July, Friday

    Time Temperature Precipitation Wind Pressure Humidity
    00:00 +17°C° 0 mm 2 mps 716 mmHg 66%
    01:00 +17°C° 0 mm 2 mps 716 mmHg 69%
    02:00 +17°C° 0 mm 2 mps 716 mmHg 72%
    03:00 +16°C° 0 mm 2 mps 716 mmHg 75%
    04:00 +16°C° 0 mm 3 mps 716 mmHg 78%
    05:00 +16°C° 0 mm 3 mps 716 mmHg 80%
    06:00 +18°C° 0 mm 3 mps 716 mmHg 75%
    07:00 +19°C° 0 mm 4 mps 716 mmHg 70%
    08:00 +21°C° 0 mm 5 mps 716 mmHg 65%
    09:00 +22°C° 0 mm 5 mps 716 mmHg 58%
    10:00 +23°C° 0 mm 5 mps 716 mmHg 51%
    11:00 +24°C° 0 mm 6 mps 716 mmHg 44%
    12:00 +26°C° 0 mm 6 mps 716 mmHg 43%
    13:00 +26°C° 0 mm 6 mps 716 mmHg 42%
    14:00 +26°C° 0 mm 6 mps 716 mmHg 41%
    15:00 +26°C° 0 mm 6 mps 716 mmHg 42%
    16:00 +24°C° 0 mm 6 mps 716 mmHg 43%
    17:00 +24°C° 0 mm 6 mps 716 mmHg 44%
    18:00 +22°C° 0 mm 6 mps 716 mmHg 48%
    19:00 +21°C° 0 mm 5 mps 716 mmHg 53%
    20:00 +19°C° 0 mm 4 mps 716 mmHg 57%
    21:00 +18°C° 0 mm 4 mps 716 mmHg 61%
    22:00 +17°C° 0 mm 4 mps 716 mmHg 65%
    23:00 +15°C° 0 mm 4 mps 716 mmHg 69%
    Show more